owner,sensor,date,latitude,longitude,vertical_datum,sea_water_practical_salinity,qcFlag 
SCCF RECON,ioos:station:SCCF:11:1,2014-07-01T00:00:00Z,26.4679,-82.0631,1.608,32.3,1111122 
SCCF RECON,ioos:station:SCCF:11:1,2014-07-01T01:00:00Z,26.4679,-82.0631,1.492,32.33,1111122 
SCCF RECON,ioos:station:SCCF:11:1,2014-07-01T02:00:00Z,26.4679,-82.0631,1.421,32.47,1111122 
SCCF RECON,ioos:station:SCCF:11:1,2014-07-01T03:00:00Z,26.4679,-82.0631,1.4,32.43,1111122 
SCCF RECON,ioos:station:SCCF:11:1,2014-07-01T04:00:00Z,26.4679,-82.0631,1.42,32.43,1111122 
SCCF RECON,ioos:station:SCCF:11:1,2014-07-01T05:00:00Z,26.4679,-82.0631,1.51,32.78,1111122 
SCCF RECON,ioos:station:SCCF:11:1,2014-07-01T06:00:00Z,26.4679,-82.0631,1.63,31.92,1111122 
SCCF RECON,ioos:station:SCCF:11:1,2014-07-01T07:00:00Z,26.4679,-82.0631,1.7,32.52,1111122 
SCCF RECON,ioos:station:SCCF:11:1,2014-07-01T08:00:00Z,26.4679,-82.0631,1.772,32.51,1111122 
SCCF RECON,ioos:station:SCCF:11:1,2014-07-01T09:00:00Z,26.4679,-82.0631,1.87,31.43,1111122 
SCCF RECON,ioos:station:SCCF:11:1,2014-07-01T10:00:00Z,26.4679,-82.0631,1.91,31.43,1111122 
SCCF RECON,ioos:station:SCCF:11:1,2014-07-01T11:00:00Z,26.4679,-82.0631,1.89,32.06,1111122 
SCCF RECON,ioos:station:SCCF:11:1,2014-07-01T12:00:00Z,26.4679,-82.0631,1.83,32.45,1111122 
SCCF RECON,ioos:station:SCCF:11:1,2014-07-01T13:00:00Z,26.4679,-82.0631,1.751,32.47,1111122 
SCCF RECON,ioos:station:SCCF:11:1,2014-07-01T14:00:00Z,26.4679,-82.0631,1.7,32.4,1111122 
SCCF RECON,ioos:station:SCCF:11:1,2014-07-01T15:00:00Z,26.4679,-82.0631,1.72,32.31,1111122 
SCCF RECON,ioos:station:SCCF:11:1,2014-07-01T16:00:00Z,26.4679,-82.0631,1.77,32.08,1111122 
SCCF RECON,ioos:station:SCCF:11:1,2014-07-01T17:00:00Z,26.4679,-82.0631,1.84,32.48,1111122 
SCCF RECON,ioos:station:SCCF:11:1,2014-07-01T18:00:00Z,26.4679,-82.0631,1.92,32.45,1111122 
SCCF RECON,ioos:station:SCCF:11:1,2014-07-01T19:00:00Z,26.4679,-82.0631,1.987,32.36,1111122 
SCCF RECON,ioos:station:SCCF:11:1,2014-07-01T20:00:00Z,26.4679,-82.0631,2.03,32.31,1111122 
SCCF RECON,ioos:station:SCCF:11:1,2014-07-01T21:00:00Z,26.4679,-82.0631,2.03,32.46,1111122 
SCCF RECON,ioos:station:SCCF:11:1,2014-07-01T22:00:00Z,26.4679,-82.0631,1.96,32.47,1111122 
SCCF RECON,ioos:station:SCCF:11:1,2014-07-01T23:00:00Z,26.4679,-82.0631,1.86,32.43,1111122 
SCCF RECON,ioos:station:SCCF:11:1,2014-07-02T00:00:00Z,26.4679,-82.0631,1.75,32.44,1111122 
SCCF RECON,ioos:station:SCCF:11:1,2014-07-02T01:00:00Z,26.4679,-82.0631,1.66,32.47,1111122 
SCCF RECON,ioos:station:SCCF:11:1,2014-07-02T02:00:00Z,26.4679,-82.0631,1.56,32.53,1111122 
SCCF RECON,ioos:station:SCCF:11:1,2014-07-02T03:00:00Z,26.4679,-82.0631,1.486,32.55,1111122 
SCCF RECON,ioos:station:SCCF:11:1,2014-07-02T04:00:00Z,26.4679,-82.0631,1.48,32.67,1111122 
SCCF RECON,ioos:station:SCCF:11:1,2014-07-02T05:00:00Z,26.4679,-82.0631,1.55,32.56,1111122 
SCCF RECON,ioos:station:SCCF:11:1,2014-07-02T06:00:00Z,26.4679,-82.0631,1.668,33.19,1111122 
SCCF RECON,ioos:station:SCCF:11:1,2014-07-02T07:00:00Z,26.4679,-82.0631,1.77,32.99,1111122 
SCCF RECON,ioos:station:SCCF:11:1,2014-07-02T08:00:00Z,26.4679,-82.0631,1.85,32.89,1111122 
SCCF RECON,ioos:station:SCCF:11:1,2014-07-02T09:00:00Z,26.4679,-82.0631,1.92,32.83,1111122 
SCCF RECON,ioos:station:SCCF:11:1,2014-07-02T10:00:00Z,26.4679,-82.0631,1.96,32.72,1111122 
SCCF RECON,ioos:station:SCCF:11:1,2014-07-02T11:00:00Z,26.4679,-82.0631,1.945,32.98,1111122 
SCCF RECON,ioos:station:SCCF:11:1,2014-07-02T12:00:00Z,26.4679,-82.0631,1.9,33.05,1111122 
SCCF RECON,ioos:station:SCCF:11:1,2014-07-02T13:00:00Z,26.4679,-82.0631,1.81,33.0,1111122 
SCCF RECON,ioos:station:SCCF:11:1,2014-07-02T14:00:00Z,26.4679,-82.0631,1.76,32.96,1111122 
SCCF RECON,ioos:station:SCCF:11:1,2014-07-02T15:00:00Z,26.4679,-82.0631,1.74,32.96,1111122 
SCCF RECON,ioos:station:SCCF:11:1,2014-07-02T16:00:00Z,26.4679,-82.0631,1.78,32.99,1111122 
SCCF RECON,ioos:station:SCCF:11:1,2014-07-02T17:00:00Z,26.4679,-82.0631,1.84,32.98,1111122 
SCCF RECON,ioos:station:SCCF:11:1,2014-07-02T18:00:00Z,26.4679,-82.0631,1.91,33.31,1111122 
SCCF RECON,ioos:station:SCCF:11:1,2014-07-02T19:00:00Z,26.4679,-82.0631,1.97,33.34,1111122 
SCCF RECON,ioos:station:SCCF:11:1,2014-07-02T20:00:00Z,26.4679,-82.0631,2.02,33.16,1111122 
SCCF RECON,ioos:station:SCCF:11:1,2014-07-02T21:00:00Z,26.4679,-82.0631,2.02,33.19,1111122 
SCCF RECON,ioos:station:SCCF:11:1,2014-07-02T22:00:00Z,26.4679,-82.0631,2.0,33.18,1111122 
SCCF RECON,ioos:station:SCCF:11:1,2014-07-02T23:00:00Z,26.4679,-82.0631,1.97,33.18,1111122 
SCCF RECON,ioos:station:SCCF:11:1,2014-07-03T00:00:00Z,26.4679,-82.0631,1.86,33.17,1111122 
SCCF RECON,ioos:station:SCCF:11:1,2014-07-03T01:00:00Z,26.4679,-82.0631,1.75,33.07,1111122 
SCCF RECON,ioos:station:SCCF:11:1,2014-07-03T02:00:00Z,26.4679,-82.0631,1.64,33.01,1111122 
SCCF RECON,ioos:station:SCCF:11:1,2014-07-03T03:00:00Z,26.4679,-82.0631,1.57,32.98,1111122 
SCCF RECON,ioos:station:SCCF:11:1,2014-07-03T04:00:00Z,26.4679,-82.0631,1.54,33.0,1111122 
SCCF RECON,ioos:station:SCCF:11:1,2014-07-03T05:00:00Z,26.4679,-82.0631,1.58,33.12,1111122 
SCCF RECON,ioos:station:SCCF:11:1,2014-07-03T06:00:00Z,26.4679,-82.0631,1.68,33.4,1111122 
SCCF RECON,ioos:station:SCCF:11:1,2014-07-03T07:00:00Z,26.4679,-82.0631,1.78,33.45,1111122 
SCCF RECON,ioos:station:SCCF:11:1,2014-07-03T08:00:00Z,26.4679,-82.0631,1.876,33.39,1111122 
SCCF RECON,ioos:station:SCCF:11:1,2014-07-03T09:00:00Z,26.4679,-82.0631,1.95,33.38,1111122 
SCCF RECON,ioos:station:SCCF:11:1,2014-07-03T10:00:00Z,26.4679,-82.0631,2.0,33.24,1111122 
SCCF RECON,ioos:station:SCCF:11:1,2014-07-03T11:00:00Z,26.4679,-82.0631,2.02,33.27,1111122 
SCCF RECON,ioos:station:SCCF:11:1,2014-07-03T12:00:00Z,26.4679,-82.0631,1.99,33.34,1111122 
SCCF RECON,ioos:station:SCCF:11:1,2014-07-03T13:00:00Z,26.4679,-82.0631,1.93,33.28,1111122 
SCCF RECON,ioos:station:SCCF:11:1,2014-07-03T14:00:00Z,26.4679,-82.0631,1.87,33.27,1111122 
SCCF RECON,ioos:station:SCCF:11:1,2014-07-03T15:00:00Z,26.4679,-82.0631,1.82,33.23,1111122 
SCCF RECON,ioos:station:SCCF:11:1,2014-07-03T16:00:00Z,26.4679,-82.0631,1.79,33.2,1111122 
SCCF RECON,ioos:station:SCCF:11:1,2014-07-03T17:00:00Z,26.4679,-82.0631,1.78,33.18,1111122 
SCCF RECON,ioos:station:SCCF:11:1,2014-07-03T18:00:00Z,26.4679,-82.0631,1.82,33.24,1111122 
SCCF RECON,ioos:station:SCCF:11:1,2014-07-03T19:00:00Z,26.4679,-82.0631,1.879,33.42,1111122 
SCCF RECON,ioos:station:SCCF:11:1,2014-07-03T20:00:00Z,26.4679,-82.0631,1.949,33.44,1111122 
SCCF RECON,ioos:station:SCCF:11:1,2014-07-03T21:00:00Z,26.4679,-82.0631,2.0,33.4,1111122 
SCCF RECON,ioos:station:SCCF:11:1,2014-07-03T22:00:00Z,26.4679,-82.0631,2.01,33.43,1111122 
SCCF RECON,ioos:station:SCCF:11:1,2014-07-03T23:00:00Z,26.4679,-82.0631,2.01,33.47,1111122 
SCCF RECON,ioos:station:SCCF:11:1,2014-07-04T00:00:00Z,26.4679,-82.0631,1.97,33.35,1111122 
SCCF RECON,ioos:station:SCCF:11:1,2014-07-04T01:00:00Z,26.4679,-82.0631,1.89,33.37,1111122 
SCCF RECON,ioos:station:SCCF:11:1,2014-07-04T02:00:00Z,26.4679,-82.0631,1.8,33.32,1111122 
SCCF RECON,ioos:station:SCCF:11:1,2014-07-04T03:00:00Z,26.4679,-82.0631,1.71,33.28,1111122 
SCCF RECON,ioos:station:SCCF:11:1,2014-07-04T04:00:00Z,26.4679,-82.0631,1.65,33.28,1111122 
SCCF RECON,ioos:station:SCCF:11:1,2014-07-04T05:00:00Z,26.4679,-82.0631,1.64,33.46,1111122 
SCCF RECON,ioos:station:SCCF:11:1,2014-07-04T06:00:00Z,26.4679,-82.0631,1.68,33.34,1111122 
SCCF RECON,ioos:station:SCCF:11:1,2014-07-04T07:00:00Z,26.4679,-82.0631,1.76,33.64,1111122 
SCCF RECON,ioos:station:SCCF:11:1,2014-07-04T08:00:00Z,26.4679,-82.0631,1.83,33.51,1111122 
SCCF RECON,ioos:station:SCCF:11:1,2014-07-04T09:00:00Z,26.4679,-82.0631,1.9,33.6,1111122 
SCCF RECON,ioos:station:SCCF:11:1,2014-07-04T10:00:00Z,26.4679,-82.0631,1.957,33.51,1111122 
SCCF RECON,ioos:station:SCCF:11:1,2014-07-04T11:00:00Z,26.4679,-82.0631,2.0,33.48,1111122 
SCCF RECON,ioos:station:SCCF:11:1,2014-07-04T12:00:00Z,26.4679,-82.0631,2.01,33.52,1111122 
SCCF RECON,ioos:station:SCCF:11:1,2014-07-04T13:00:00Z,26.4679,-82.0631,2.01,33.49,1111122 
SCCF RECON,ioos:station:SCCF:11:1,2014-07-04T14:00:00Z,26.4679,-82.0631,1.933,33.59,1111122 
SCCF RECON,ioos:station:SCCF:11:1,2014-07-04T15:00:00Z,26.4679,-82.0631,1.84,33.53,1111122 
SCCF RECON,ioos:station:SCCF:11:1,2014-07-04T16:00:00Z,26.4679,-82.0631,1.73,33.47,1111122 
SCCF RECON,ioos:station:SCCF:11:1,2014-07-04T17:00:00Z,26.4679,-82.0631,1.663,33.42,1111122 
SCCF RECON,ioos:station:SCCF:11:1,2014-07-04T18:00:00Z,26.4679,-82.0631,1.67,33.46,1111122 
SCCF RECON,ioos:station:SCCF:11:1,2014-07-04T19:00:00Z,26.4679,-82.0631,1.73,33.51,1111122 
SCCF RECON,ioos:station:SCCF:11:1,2014-07-04T20:00:00Z,26.4679,-82.0631,1.79,33.61,1111122 
SCCF RECON,ioos:station:SCCF:11:1,2014-07-04T21:00:00Z,26.4679,-82.0631,1.84,33.58,1111122 
SCCF RECON,ioos:station:SCCF:11:1,2014-07-04T22:00:00Z,26.4679,-82.0631,1.87,33.71,1111122 
SCCF RECON,ioos:station:SCCF:11:1,2014-07-04T23:00:00Z,26.4679,-82.0631,1.88,33.73,1111122 
SCCF RECON,ioos:station:SCCF:11:1,2014-07-05T00:00:00Z,26.4679,-82.0631,1.88,33.7,1111122 
SCCF RECON,ioos:station:SCCF:11:1,2014-07-05T01:00:00Z,26.4679,-82.0631,1.86,33.68,1111122 
SCCF RECON,ioos:station:SCCF:11:1,2014-07-05T02:00:00Z,26.4679,-82.0631,1.807,33.64,1111122 
SCCF RECON,ioos:station:SCCF:11:1,2014-07-05T03:00:00Z,26.4679,-82.0631,1.73,33.57,1111122 
SCCF RECON,ioos:station:SCCF:11:1,2014-07-05T04:00:00Z,26.4679,-82.0631,1.65,33.53,1111122 
SCCF RECON,ioos:station:SCCF:11:1,2014-07-05T05:00:00Z,26.4679,-82.0631,1.613,33.49,1111122 
SCCF RECON,ioos:station:SCCF:11:1,2014-07-05T06:00:00Z,26.4679,-82.0631,1.61,33.75,1111122 
SCCF RECON,ioos:station:SCCF:11:1,2014-07-05T07:00:00Z,26.4679,-82.0631,1.672,33.59,1111122 
SCCF RECON,ioos:station:SCCF:11:1,2014-07-05T08:00:00Z,26.4679,-82.0631,1.76,33.16,1111122 
SCCF RECON,ioos:station:SCCF:11:1,2014-07-05T09:00:00Z,26.4679,-82.0631,1.84,33.21,1111122 
SCCF RECON,ioos:station:SCCF:11:1,2014-07-05T10:00:00Z,26.4679,-82.0631,1.92,33.23,1111122 
SCCF RECON,ioos:station:SCCF:11:1,2014-07-05T11:00:00Z,26.4679,-82.0631,1.99,33.28,1111122 
SCCF RECON,ioos:station:SCCF:11:1,2014-07-05T12:00:00Z,26.4679,-82.0631,2.04,33.07,1111122 
SCCF RECON,ioos:station:SCCF:11:1,2014-07-05T13:00:00Z,26.4679,-82.0631,2.06,33.13,1111122 
SCCF RECON,ioos:station:SCCF:11:1,2014-07-05T14:00:00Z,26.4679,-82.0631,2.047,33.37,1111122 
SCCF RECON,ioos:station:SCCF:11:1,2014-07-05T15:00:00Z,26.4679,-82.0631,1.94,33.49,1111122 
SCCF RECON,ioos:station:SCCF:11:1,2014-07-05T16:00:00Z,26.4679,-82.0631,1.86,33.53,1111122 
SCCF RECON,ioos:station:SCCF:11:1,2014-07-05T17:00:00Z,26.4679,-82.0631,1.77,33.53,1111122 
SCCF RECON,ioos:station:SCCF:11:1,2014-07-05T18:00:00Z,26.4679,-82.0631,1.71,33.53,1111122 
SCCF RECON,ioos:station:SCCF:11:1,2014-07-05T19:00:00Z,26.4679,-82.0631,1.68,33.54,1111122 
SCCF RECON,ioos:station:SCCF:11:1,2014-07-05T20:00:00Z,26.4679,-82.0631,1.696,33.55,1111122 
SCCF RECON,ioos:station:SCCF:11:1,2014-07-05T21:00:00Z,26.4679,-82.0631,1.762,33.62,1111122 
SCCF RECON,ioos:station:SCCF:11:1,2014-07-05T22:00:00Z,26.4679,-82.0631,1.845,33.64,1111122 
SCCF RECON,ioos:station:SCCF:11:1,2014-07-05T23:00:00Z,26.4679,-82.0631,1.92,33.6,1111122 
SCCF RECON,ioos:station:SCCF:11:1,2014-07-06T00:00:00Z,26.4679,-82.0631,1.94,33.6,1111122 
SCCF RECON,ioos:station:SCCF:11:1,2014-07-06T01:00:00Z,26.4679,-82.0631,1.94,33.17,1111122 
SCCF RECON,ioos:station:SCCF:11:1,2014-07-06T02:00:00Z,26.4679,-82.0631,1.91,33.13,1111122 
SCCF RECON,ioos:station:SCCF:11:1,2014-07-06T03:00:00Z,26.4679,-82.0631,1.88,33.27,1111122 
SCCF RECON,ioos:station:SCCF:11:1,2014-07-06T04:00:00Z,26.4679,-82.0631,1.814,33.32,1111122 
SCCF RECON,ioos:station:SCCF:11:1,2014-07-06T05:00:00Z,26.4679,-82.0631,1.76,33.28,1111122 
SCCF RECON,ioos:station:SCCF:11:1,2014-07-06T06:00:00Z,26.4679,-82.0631,1.711,33.29,1111122 
SCCF RECON,ioos:station:SCCF:11:1,2014-07-06T07:00:00Z,26.4679,-82.0631,1.719,33.3,1111122 
SCCF RECON,ioos:station:SCCF:11:1,2014-07-06T08:00:00Z,26.4679,-82.0631,1.76,33.35,1111122 
SCCF RECON,ioos:station:SCCF:11:1,2014-07-06T09:00:00Z,26.4679,-82.0631,1.85,33.45,1111122 
SCCF RECON,ioos:station:SCCF:11:1,2014-07-06T10:00:00Z,26.4679,-82.0631,1.94,33.41,1111122 
SCCF RECON,ioos:station:SCCF:11:1,2014-07-06T11:00:00Z,26.4679,-82.0631,2.0,33.59,1111122 
SCCF RECON,ioos:station:SCCF:11:1,2014-07-06T12:00:00Z,26.4679,-82.0631,2.08,34.05,1111122 
SCCF RECON,ioos:station:SCCF:11:1,2014-07-06T13:00:00Z,26.4679,-82.0631,2.1,34.13,1111122 
SCCF RECON,ioos:station:SCCF:11:1,2014-07-06T14:00:00Z,26.4679,-82.0631,2.09,33.63,1111122 
SCCF RECON,ioos:station:SCCF:11:1,2014-07-06T15:00:00Z,26.4679,-82.0631,2.03,33.49,1111122 
SCCF RECON,ioos:station:SCCF:11:1,2014-07-06T16:00:00Z,26.4679,-82.0631,1.9,33.42,1111122 
SCCF RECON,ioos:station:SCCF:11:1,2014-07-06T17:00:00Z,26.4679,-82.0631,1.79,33.39,1111122 
SCCF RECON,ioos:station:SCCF:11:1,2014-07-06T18:00:00Z,26.4679,-82.0631,1.72,33.41,1111122 
SCCF RECON,ioos:station:SCCF:11:1,2014-07-06T19:00:00Z,26.4679,-82.0631,1.65,33.34,1111122 
SCCF RECON,ioos:station:SCCF:11:1,2014-07-06T20:00:00Z,26.4679,-82.0631,1.61,33.37,1111122 
SCCF RECON,ioos:station:SCCF:11:1,2014-07-06T21:00:00Z,26.4679,-82.0631,1.64,33.51,1111122 
SCCF RECON,ioos:station:SCCF:11:1,2014-07-06T22:00:00Z,26.4679,-82.0631,1.73,33.9,1111122 
SCCF RECON,ioos:station:SCCF:11:1,2014-07-06T23:00:00Z,26.4679,-82.0631,1.81,33.89,1111122 
SCCF RECON,ioos:station:SCCF:11:1,2014-07-07T00:00:00Z,26.4679,-82.0631,1.87,33.85,1111122 
SCCF RECON,ioos:station:SCCF:11:1,2014-07-07T01:00:00Z,26.4679,-82.0631,1.889,33.86,1111122 
SCCF RECON,ioos:station:SCCF:11:1,2014-07-07T02:00:00Z,26.4679,-82.0631,1.899,33.85,1111122 
SCCF RECON,ioos:station:SCCF:11:1,2014-07-07T03:00:00Z,26.4679,-82.0631,1.9,33.8,1111122 
SCCF RECON,ioos:station:SCCF:11:1,2014-07-07T04:00:00Z,26.4679,-82.0631,1.86,33.86,1111122 
SCCF RECON,ioos:station:SCCF:11:1,2014-07-07T05:00:00Z,26.4679,-82.0631,1.78,33.77,1111122 
SCCF RECON,ioos:station:SCCF:11:1,2014-07-07T06:00:00Z,26.4679,-82.0631,1.75,33.65,1111122 
SCCF RECON,ioos:station:SCCF:11:1,2014-07-07T07:00:00Z,26.4679,-82.0631,1.73,33.68,1111122 
SCCF RECON,ioos:station:SCCF:11:1,2014-07-07T08:00:00Z,26.4679,-82.0631,1.75,33.74,1111122 
SCCF RECON,ioos:station:SCCF:11:1,2014-07-07T09:00:00Z,26.4679,-82.0631,1.815,33.82,1111122 
SCCF RECON,ioos:station:SCCF:11:1,2014-07-07T10:00:00Z,26.4679,-82.0631,1.93,33.71,1111122 
SCCF RECON,ioos:station:SCCF:11:1,2014-07-07T11:00:00Z,26.4679,-82.0631,2.0,33.75,1111122 
SCCF RECON,ioos:station:SCCF:11:1,2014-07-07T12:00:00Z,26.4679,-82.0631,2.07,33.82,1111122 
SCCF RECON,ioos:station:SCCF:11:1,2014-07-07T13:00:00Z,26.4679,-82.0631,2.09,33.79,1111122 
SCCF RECON,ioos:station:SCCF:11:1,2014-07-07T14:00:00Z,26.4679,-82.0631,2.12,33.63,1111122 
SCCF RECON,ioos:station:SCCF:11:1,2014-07-07T15:00:00Z,26.4679,-82.0631,2.089,33.38,1111122 
SCCF RECON,ioos:station:SCCF:11:1,2014-07-07T16:00:00Z,26.4679,-82.0631,2.007,33.22,1111122 
SCCF RECON,ioos:station:SCCF:11:1,2014-07-07T17:00:00Z,26.4679,-82.0631,1.87,33.09,1111122 
SCCF RECON,ioos:station:SCCF:11:1,2014-07-07T18:00:00Z,26.4679,-82.0631,1.75,32.61,1111122 
SCCF RECON,ioos:station:SCCF:11:1,2014-07-07T19:00:00Z,26.4679,-82.0631,1.63,32.57,1111122 
SCCF RECON,ioos:station:SCCF:11:1,2014-07-07T20:00:00Z,26.4679,-82.0631,1.54,32.43,1111122 
SCCF RECON,ioos:station:SCCF:11:1,2014-07-07T21:00:00Z,26.4679,-82.0631,1.51,32.93,1111122 
SCCF RECON,ioos:station:SCCF:11:1,2014-07-07T22:00:00Z,26.4679,-82.0631,1.55,33.18,1111122 
SCCF RECON,ioos:station:SCCF:11:1,2014-07-07T23:00:00Z,26.4679,-82.0631,1.63,33.12,1111122 
SCCF RECON,ioos:station:SCCF:11:1,2014-07-08T00:00:00Z,26.4679,-82.0631,1.7,32.61,1111122 
SCCF RECON,ioos:station:SCCF:11:1,2014-07-08T01:00:00Z,26.4679,-82.0631,1.773,33.0,1111122 
SCCF RECON,ioos:station:SCCF:11:1,2014-07-08T02:00:00Z,26.4679,-82.0631,1.84,33.21,1111122 
SCCF RECON,ioos:station:SCCF:11:1,2014-07-08T03:00:00Z,26.4679,-82.0631,1.888,33.1,1111122 
SCCF RECON,ioos:station:SCCF:11:1,2014-07-08T04:00:00Z,26.4679,-82.0631,1.91,32.96,1111122 
SCCF RECON,ioos:station:SCCF:11:1,2014-07-08T05:00:00Z,26.4679,-82.0631,1.91,33.02,1111122 
SCCF RECON,ioos:station:SCCF:11:1,2014-07-08T06:00:00Z,26.4679,-82.0631,1.87,33.04,1111122 
SCCF RECON,ioos:station:SCCF:11:1,2014-07-08T07:00:00Z,26.4679,-82.0631,1.82,32.98,1111122 
SCCF RECON,ioos:station:SCCF:11:1,2014-07-08T08:00:00Z,26.4679,-82.0631,1.79,32.94,1111122 
SCCF RECON,ioos:station:SCCF:11:1,2014-07-08T09:00:00Z,26.4679,-82.0631,1.79,32.95,1111122 
SCCF RECON,ioos:station:SCCF:11:1,2014-07-08T10:00:00Z,26.4679,-82.0631,1.83,32.95,1111122 
SCCF RECON,ioos:station:SCCF:11:1,2014-07-08T11:00:00Z,26.4679,-82.0631,1.91,32.82,1111122 
SCCF RECON,ioos:station:SCCF:11:1,2014-07-08T12:00:00Z,26.4679,-82.0631,2.02,33.21,1111122 
SCCF RECON,ioos:station:SCCF:11:1,2014-07-08T13:00:00Z,26.4679,-82.0631,2.09,33.3,1111122 
SCCF RECON,ioos:station:SCCF:11:1,2014-07-08T14:00:00Z,26.4679,-82.0631,2.17,33.49,1111122 
SCCF RECON,ioos:station:SCCF:11:1,2014-07-08T15:00:00Z,26.4679,-82.0631,2.18,33.43,1111122 
SCCF RECON,ioos:station:SCCF:11:1,2014-07-08T16:00:00Z,26.4679,-82.0631,2.132,33.11,1111122 
SCCF RECON,ioos:station:SCCF:11:1,2014-07-08T17:00:00Z,26.4679,-82.0631,1.997,32.97,1111122 
SCCF RECON,ioos:station:SCCF:11:1,2014-07-08T18:00:00Z,26.4679,-82.0631,1.85,32.96,1111122 
SCCF RECON,ioos:station:SCCF:11:1,2014-07-08T19:00:00Z,26.4679,-82.0631,1.72,32.97,1111122 
SCCF RECON,ioos:station:SCCF:11:1,2014-07-08T20:00:00Z,26.4679,-82.0631,1.601,32.94,1111122 
SCCF RECON,ioos:station:SCCF:11:1,2014-07-08T21:00:00Z,26.4679,-82.0631,1.52,32.81,1111122 
SCCF RECON,ioos:station:SCCF:11:1,2014-07-08T22:00:00Z,26.4679,-82.0631,1.48,32.84,1111122 
SCCF RECON,ioos:station:SCCF:11:1,2014-07-08T23:00:00Z,26.4679,-82.0631,1.51,33.07,1111122 
SCCF RECON,ioos:station:SCCF:11:1,2014-07-09T00:00:00Z,26.4679,-82.0631,1.6,33.06,1111122 
SCCF RECON,ioos:station:SCCF:11:1,2014-07-09T01:00:00Z,26.4679,-82.0631,1.65,32.83,1111122 
SCCF RECON,ioos:station:SCCF:11:1,2014-07-09T02:00:00Z,26.4679,-82.0631,1.73,32.72,1111122 
SCCF RECON,ioos:station:SCCF:11:1,2014-07-09T03:00:00Z,26.4679,-82.0631,1.82,33.01,1111122 
SCCF RECON,ioos:station:SCCF:11:1,2014-07-09T04:00:00Z,26.4679,-82.0631,1.89,33.08,1111122 
SCCF RECON,ioos:station:SCCF:11:1,2014-07-09T05:00:00Z,26.4679,-82.0631,1.91,33.09,1111122 
SCCF RECON,ioos:station:SCCF:11:1,2014-07-09T06:00:00Z,26.4679,-82.0631,1.89,32.99,1111122 
SCCF RECON,ioos:station:SCCF:11:1,2014-07-09T07:00:00Z,26.4679,-82.0631,1.84,32.92,1111122 
SCCF RECON,ioos:station:SCCF:11:1,2014-07-09T08:00:00Z,26.4679,-82.0631,1.77,32.85,1111122 
SCCF RECON,ioos:station:SCCF:11:1,2014-07-09T09:00:00Z,26.4679,-82.0631,1.73,32.53,1111122 
SCCF RECON,ioos:station:SCCF:11:1,2014-07-09T10:00:00Z,26.4679,-82.0631,1.78,32.86,1111122 
SCCF RECON,ioos:station:SCCF:11:1,2014-07-09T11:00:00Z,26.4679,-82.0631,1.86,33.02,1111122 
SCCF RECON,ioos:station:SCCF:11:1,2014-07-09T12:00:00Z,26.4679,-82.0631,1.95,33.06,1111122 
SCCF RECON,ioos:station:SCCF:11:1,2014-07-09T13:00:00Z,26.4679,-82.0631,2.05,33.2,1111122 
SCCF RECON,ioos:station:SCCF:11:1,2014-07-09T14:00:00Z,26.4679,-82.0631,2.14,33.25,1111122 
SCCF RECON,ioos:station:SCCF:11:1,2014-07-09T15:00:00Z,26.4679,-82.0631,2.18,33.64,1111122 
SCCF RECON,ioos:station:SCCF:11:1,2014-07-09T16:00:00Z,26.4679,-82.0631,2.19,33.56,1111122 
SCCF RECON,ioos:station:SCCF:11:1,2014-07-09T17:00:00Z,26.4679,-82.0631,2.091,32.85,1111122 
SCCF RECON,ioos:station:SCCF:11:1,2014-07-09T18:00:00Z,26.4679,-82.0631,1.95,32.56,1111122 
SCCF RECON,ioos:station:SCCF:11:1,2014-07-09T19:00:00Z,26.4679,-82.0631,1.805,32.49,1111122 
SCCF RECON,ioos:station:SCCF:11:1,2014-07-09T20:00:00Z,26.4679,-82.0631,1.66,32.61,1111122 
SCCF RECON,ioos:station:SCCF:11:1,2014-07-09T21:00:00Z,26.4679,-82.0631,1.518,32.61,1111122 
SCCF RECON,ioos:station:SCCF:11:1,2014-07-09T22:00:00Z,26.4679,-82.0631,1.43,32.41,1111122 
SCCF RECON,ioos:station:SCCF:11:1,2014-07-09T23:00:00Z,26.4679,-82.0631,1.398,32.46,1111122 
SCCF RECON,ioos:station:SCCF:11:1,2014-07-10T00:00:00Z,26.4679,-82.0631,1.45,32.77,1111122 
SCCF RECON,ioos:station:SCCF:11:1,2014-07-10T01:00:00Z,26.4679,-82.0631,1.58,32.88,1111122 
SCCF RECON,ioos:station:SCCF:11:1,2014-07-10T02:00:00Z,26.4679,-82.0631,1.71,32.83,1111122 
SCCF RECON,ioos:station:SCCF:11:1,2014-07-10T03:00:00Z,26.4679,-82.0631,1.83,33.05,1111122 
SCCF RECON,ioos:station:SCCF:11:1,2014-07-10T04:00:00Z,26.4679,-82.0631,1.91,32.8,1111122 
SCCF RECON,ioos:station:SCCF:11:1,2014-07-10T05:00:00Z,26.4679,-82.0631,1.96,32.49,1111122 
SCCF RECON,ioos:station:SCCF:11:1,2014-07-10T06:00:00Z,26.4679,-82.0631,1.96,32.6,1111122 
SCCF RECON,ioos:station:SCCF:11:1,2014-07-10T07:00:00Z,26.4679,-82.0631,1.91,32.74,1111122 
SCCF RECON,ioos:station:SCCF:11:1,2014-07-10T08:00:00Z,26.4679,-82.0631,1.86,32.85,1111122 
SCCF RECON,ioos:station:SCCF:11:1,2014-07-10T09:00:00Z,26.4679,-82.0631,1.815,32.85,1111122 
SCCF RECON,ioos:station:SCCF:11:1,2014-07-10T10:00:00Z,26.4679,-82.0631,1.79,32.84,1111122 
SCCF RECON,ioos:station:SCCF:11:1,2014-07-10T11:00:00Z,26.4679,-82.0631,1.813,32.84,1111122 
SCCF RECON,ioos:station:SCCF:11:1,2014-07-10T12:00:00Z,26.4679,-82.0631,1.92,33.24,1111122 
SCCF RECON,ioos:station:SCCF:11:1,2014-07-10T13:00:00Z,26.4679,-82.0631,2.02,33.25,1111122 
SCCF RECON,ioos:station:SCCF:11:1,2014-07-10T14:00:00Z,26.4679,-82.0631,2.12,33.72,1111122 
SCCF RECON,ioos:station:SCCF:11:1,2014-07-10T15:00:00Z,26.4679,-82.0631,2.22,34.73,1111122 
SCCF RECON,ioos:station:SCCF:11:1,2014-07-10T16:00:00Z,26.4679,-82.0631,2.26,34.66,1111122 
SCCF RECON,ioos:station:SCCF:11:1,2014-07-10T17:00:00Z,26.4679,-82.0631,2.203,33.33,1111122 
SCCF RECON,ioos:station:SCCF:11:1,2014-07-10T18:00:00Z,26.4679,-82.0631,2.07,33.15,1111122 
SCCF RECON,ioos:station:SCCF:11:1,2014-07-10T19:00:00Z,26.4679,-82.0631,1.894,33.04,1111122 
SCCF RECON,ioos:station:SCCF:11:1,2014-07-10T20:00:00Z,26.4679,-82.0631,1.731,32.93,1111122 
SCCF RECON,ioos:station:SCCF:11:1,2014-07-10T21:00:00Z,26.4679,-82.0631,1.6,32.85,1111122 
SCCF RECON,ioos:station:SCCF:11:1,2014-07-10T22:00:00Z,26.4679,-82.0631,1.467,32.85,1111122 
SCCF RECON,ioos:station:SCCF:11:1,2014-07-10T23:00:00Z,26.4679,-82.0631,1.34,32.78,1111122 
SCCF RECON,ioos:station:SCCF:11:1,2014-07-11T00:00:00Z,26.4679,-82.0631,1.32,32.81,1111122 
SCCF RECON,ioos:station:SCCF:11:1,2014-07-11T01:00:00Z,26.4679,-82.0631,1.419,32.94,1111122 
SCCF RECON,ioos:station:SCCF:11:1,2014-07-11T02:00:00Z,26.4679,-82.0631,1.562,32.99,1111122 
SCCF RECON,ioos:station:SCCF:11:1,2014-07-11T03:00:00Z,26.4679,-82.0631,1.69,33.06,1111122 
SCCF RECON,ioos:station:SCCF:11:1,2014-07-11T04:00:00Z,26.4679,-82.0631,1.794,33.1,1111122 
SCCF RECON,ioos:station:SCCF:11:1,2014-07-11T05:00:00Z,26.4679,-82.0631,1.89,32.52,1111122 
SCCF RECON,ioos:station:SCCF:11:1,2014-07-11T06:00:00Z,26.4679,-82.0631,1.95,32.62,1111122 
SCCF RECON,ioos:station:SCCF:11:1,2014-07-11T07:00:00Z,26.4679,-82.0631,1.95,32.83,1111122 
SCCF RECON,ioos:station:SCCF:11:1,2014-07-11T08:00:00Z,26.4679,-82.0631,1.88,32.82,1111122 
SCCF RECON,ioos:station:SCCF:11:1,2014-07-11T09:00:00Z,26.4679,-82.0631,1.8,32.9,1111122 
SCCF RECON,ioos:station:SCCF:11:1,2014-07-11T10:00:00Z,26.4679,-82.0631,1.75,32.95,1111122 
SCCF RECON,ioos:station:SCCF:11:1,2014-07-11T11:00:00Z,26.4679,-82.0631,1.729,32.88,1111122 
SCCF RECON,ioos:station:SCCF:11:1,2014-07-11T12:00:00Z,26.4679,-82.0631,1.78,33.17,1111122 
SCCF RECON,ioos:station:SCCF:11:1,2014-07-11T13:00:00Z,26.4679,-82.0631,1.89,32.96,1111122 
SCCF RECON,ioos:station:SCCF:11:1,2014-07-11T14:00:00Z,26.4679,-82.0631,2.025,32.93,1111122 
SCCF RECON,ioos:station:SCCF:11:1,2014-07-11T15:00:00Z,26.4679,-82.0631,2.12,33.68,1111122 
SCCF RECON,ioos:station:SCCF:11:1,2014-07-11T16:00:00Z,26.4679,-82.0631,2.19,34.02,1111122 
SCCF RECON,ioos:station:SCCF:11:1,2014-07-11T17:00:00Z,26.4679,-82.0631,2.23,33.73,1111122 
SCCF RECON,ioos:station:SCCF:11:1,2014-07-11T18:00:00Z,26.4679,-82.0631,2.2,33.12,1111122 